Location: *
(55.6049°S, 142.1985°W)
Time: 00:14:17
(UTC+00:00)

SL-4 R/B - Pass Details

Date: 12 May 2021
Orbit: 427 x 663 km, 51.6° (Epoch: 23 June)

Event Time Altitude Azimuth Distance (km) Brightness Sun altitude
Exits shadow 15:09:12 28° 306° (NW) 1,059 3.1 -17.2°
Maximum altitude 15:10:19 32° 337° (NNW) 935 3.0 -17.1°
Drops below altitude 10° 15:13:51 10° 41° (NE) 1,731 5.3 -16.6°
Sets 15:16:05 0° 51° (NE) 2,570 6.5 -16.3°
